{"data":{"norad_id":45024,"epoch":"2026-05-25T04:50:58.027200Z","epoch_age_seconds":50875,"freshness":"FRESH","line1":"1 45024U 20004A   26145.20206050  .00000569  00000+0  73123-4 0  9993","line2":"2 45024  86.3922 125.8660 0015974  81.5182 278.7849 14.79101170342528","mean_motion":14.7910117,"eccentricity":0.0015974,"inclination_deg":86.3922,"raan_deg":125.866,"arg_perigee_deg":81.5182,"mean_anomaly_deg":278.7849,"bstar":7.3123e-5,"rev_number":34252,"period_min":97.356423563643,"perigee_km":620.9644881126,"apogee_km":643.36099372489,"semimajor_km":7010.2997409187,"source":"CELESTRAK","updated_at":"2026-05-25T13:37:56.064176Z"}}